DELFI-PQ (51074 NORAD) Tracking and Keplerian Element Data

This shows tracking and keplerian element data for the satellite.

Feedback or suggestion? Click here.




ElementValue
Catalog51074
NameDELFI-PQ
Epoch Orbit8985
Epoch Day238.73071071
Epoch Year2023
RAAN312.2797
Inclination97.4529
Eccentricity0.0006476
Argument of Perigee1.1523
Mean Anonmoly358.9738
Mean Motion15.42966859
Decay Rate0.00060159
L11 51074U 22002CU 23238.73071071 .00060159 00000-0 13589-2 0 9996
L22 51074 97.4529 312.2797 0006476 1.1523 358.9738 15.42966859 89859



Live tracking and technical data element details for DELFI-PQ (NORAD 51074). DELFI-PQ can be tracked NOW for your location showing map with azimuth and elevation plus other details from your city location.







IsCatalogInMostPopularTable: catalog: 51074, numindb: 51
Update: records affected: 1



GetName: 51074 DELFI-PQ

Hit Count: updated at: Thu, 23 Jan 2025 17:47:28 GMT